TimeCST,TemperatureF,Dew PointF,Humidity,Sea Level PressureIn,VisibilityMPH,Wind Direction,Wind SpeedMPH,Gust SpeedMPH,PrecipitationIn,Events,Conditions,WindDirDegrees,DateUTC
12:56 AM,34.0,28.0,79,29.81,10.0,WSW,3.5,-,N/A,,Clear,240,2013-01-19 06:56:00
1:56 AM,39.0,27.0,62,29.79,10.0,WSW,3.5,-,N/A,,Clear,240,2013-01-19 07:56:00
2:56 AM,36.0,27.0,70,29.81,10.0,West,6.9,-,N/A,,Clear,260,2013-01-19 08:56:00
3:56 AM,36.0,27.0,70,29.80,10.0,West,8.1,-,N/A,,Clear,260,2013-01-19 09:56:00
4:56 AM,35.1,27.0,72,29.80,10.0,West,9.2,-,N/A,,Clear,270,2013-01-19 10:56:00
5:56 AM,34.0,27.0,75,29.83,10.0,West,6.9,-,N/A,,Clear,260,2013-01-19 11:56:00
6:56 AM,34.0,27.0,75,29.85,10.0,West,9.2,-,N/A,,Clear,270,2013-01-19 12:56:00
7:56 AM,34.0,27.0,75,29.87,10.0,West,13.8,-,N/A,,Clear,280,2013-01-19 13:56:00
8:56 AM,34.0,27.0,75,29.91,10.0,WNW,12.7,-,N/A,,Clear,300,2013-01-19 14:56:00
9:56 AM,37.9,28.9,70,29.94,10.0,NW,19.6,25.3,N/A,,Clear,310,2013-01-19 15:56:00
10:56 AM,39.9,30.9,70,29.96,10.0,NW,17.3,-,N/A,,Clear,320,2013-01-19 16:56:00
11:56 AM,41.0,30.9,67,29.97,10.0,NW,20.7,27.6,N/A,,Clear,310,2013-01-19 17:56:00
12:56 PM,41.0,32.0,70,29.99,10.0,NW,26.5,34.5,N/A,,Partly Cloudy,310,2013-01-19 18:56:00
1:20 PM,41.0,30.2,65,29.96,10.0,NW,26.5,34.5,N/A,,Mostly Cloudy,310,2013-01-19 19:20:00
1:56 PM,39.9,30.9,70,30.01,10.0,NW,26.5,38.0,N/A,,Overcast,320,2013-01-19 19:56:00
2:04 PM,39.2,30.2,70,29.97,10.0,NW,27.6,38.0,N/A,,Overcast,310,2013-01-19 20:04:00
2:56 PM,39.0,30.9,73,30.05,10.0,WNW,25.3,34.5,N/A,,Mostly Cloudy,300,2013-01-19 20:56:00
3:56 PM,30.9,21.0,67,30.12,10.0,NW,26.5,39.1,N/A,,Mostly Cloudy,320,2013-01-19 21:56:00
4:04 PM,30.2,17.6,60,30.08,10.0,NW,28.8,39.1,N/A,,Mostly Cloudy,320,2013-01-19 22:04:00
4:56 PM,24.1,12.9,62,30.19,10.0,NNW,28.8,42.6,N/A,,Partly Cloudy,330,2013-01-19 22:56:00
5:56 PM,18.0,8.1,65,30.27,10.0,NNW,23.0,38.0,N/A,,Partly Cloudy,330,2013-01-19 23:56:00
6:56 PM,16.0,6.1,65,30.30,10.0,NNW,27.6,38.0,N/A,,Partly Cloudy,330,2013-01-20 00:56:00
7:56 PM,12.9,3.9,67,30.35,10.0,NNW,20.7,29.9,N/A,,Clear,340,2013-01-20 01:56:00
8:56 PM,10.0,1.0,67,30.37,10.0,NNW,19.6,29.9,N/A,,Clear,330,2013-01-20 02:56:00
9:56 PM,9.0,-0.9,64,30.36,10.0,NNW,19.6,27.6,N/A,,Clear,340,2013-01-20 03:56:00
10:56 PM,7.0,-0.9,70,30.38,10.0,NNW,13.8,-,N/A,,Clear,330,2013-01-20 04:56:00
11:56 PM,6.1,-2.0,69,30.40,10.0,NNW,9.2,-,N/A,,Clear,340,2013-01-20 05:56:00